SL-8 R/B

Satellite information

Favourite Embed

Satellite Type and Status

ROCKET BODYIN ORBIT

Key statistics

Satellite SL-8 R/B at a glance.

Uptime

14575

Days in orbit

Revolutions

≈ 13.8

Per day

Orbit

LEO

Low Earth Orbit

Inclination

82.9

Latest

Satellite identification and parameters

Extended collection of information and parameters for SL-8 R/B.

Object identification

Identified? True

Debris? False

Object name: SL-8 R/B

International designator: 1985-110B

Object number (NORAD): 16292

Object ID (CCSDS): 16292

Country: COMMONWEALTH OF INDEPENDENT STATES (CIS)

Current information (Y/N): Y

RCS size: LARGE

Orbital parameters

Period: 104.557 minutes

Inclination: 82.9289 deg

SMA: 7351.831 km

Apoapsis: 995.698 km

Periapsis: 951.693 km

RAAN: 252.5951 deg

Eccentricy: 0.00299284

Argument of periapsis: 188.165 deg

Mean anomaly: 171.9024 deg

Mean motion: 13.772397 rev/day

Mean motion (dot): 0.00000042 rev/day2

B* drag term: 0.000026851054 1/REarth

Two-line elements (TLE)

Creation date: Oct. 24, 2025, 2:48 a.m.

Reference frame: TEME

Reference center: EARTH

Epoch: Oct. 23, 2025, 10:18 p.m. UTC

TLE line 0: 0 SL-8 R/B

TLE line 1: 1 16292U 85110B 25296.92925517 .00000042 00000-0 26851-4 0 9991

TLE line 2: 2 16292 82.9289 252.5951 0029928 188.1650 171.9024 13.77239700 4623

Live tracking on map

Real-time ground track for satellite SL-8 R/B.

In-orbit conjunctions

A list of the most updated potential collisions computed for object SL-8 R/B.

Target Orbit TCA Probability of collision Miss distance Type
SL-14 R/B LEO 2025-08-01 02:32:19 0.0001047618 48.0 (m) ROCKET BODY
COSMOS 1759 LEO 2024-12-13 00:08:33 0.002119616 170.0 (m) PAYLOAD
DELTA 1 DEB SSO 2024-10-30 21:49:58 0.0009535373 71.0 (m) DEBRIS
SL-8 R/B LEO 2024-10-01 04:54:36 0.0001607642 159.0 (m) ROCKET BODY
THORAD AGENA D DEB SSO 2024-09-11 20:11:12 0.000117664 378.0 (m) DEBRIS

Associated space launch

Navigation satellite providing location information for the Tsiklon-B navigation system

SL-8 R/B was lifted into orbit during the mission ‘Kosmos-3M | Parus 51’, on board a Kosmos-3M space rocket.

The launch took place on Nov. 28, 1985, 1:12 p.m. from 133/3 (133L).

For more information about the launch, click the button.

Launch to space Kosmos-3M | Parus 51
Kosmos-3M | Parus 51

Agency: N/A

Status: Launch Successful

Launch date: Nov. 28, 1985, 1:12 p.m. UTC

Rocket: Kosmos-3M

Launch pad: 133/3 (133L)

Location: Plesetsk Cosmodrome, Russian Federation

...

Latest news about this satellite

There are no fresh news available about this satellite. Check back as we update our databases every day.


Newsletter sign-up

Weekly statistics, charts and insights to help you stay on top of the space industry.